Big Rapids, MI

4:44 PM EDT on August 21, 2019 (GMT -0400)
Roben-Hood

Weather History for KRQB - May, 2019

Change the Weather History Date:

Thursday, May 23, 2019

  Actual Average Record
Temperature  
Mean Temperature 61 °F -  
Max Temperature 68 °F 70 °F 87 °F (1977)
Min Temperature 54 °F 45 °F 28 °F (2006)
Degree Days  
Heating Degree Days 4    
Growing Degree Days 11 (Base 50)    
Moisture  
Dew Point 53 °F    
Average Humidity 67    
Maximum Humidity 96    
Minimum Humidity 40    
Precipitation  
Precipitation 0.14 in - - ()
Sea Level Pressure  
Sea Level Pressure 29.92 in    
Wind  
Wind Speed 10 mph (West)    
Max Wind Speed 25 mph    
Max Gust Speed 36 mph    
Visibility 10 miles    
Events Rain    
Averages and records for this station are not official NWS values.
T = Trace of Precipitation, MM = Missing Value Source: NWS Daily Summary

Daily Weather History Graph

Daily Weather History Graph

Search for Another Location

Airport or City:

Astronomy

May. 23, 2019 Rise Set
Actual Time 6:09 AM EDT 9:08 PM EDT
Civil Twilight 5:35 AM EDT 9:42 PM EDT
Nautical Twilight 4:51 AM EDT 10:26 PM EDT
Astronomical Twilight 4:00 AM EDT 11:18 PM EDT
Moon 12:52 AM EDT (5/23) 10:11 AM EDT (5/23)
Length of Visible Light 16h 07m
Length of Day
14h 59m
Waning Gibbous, 77% of the Moon is Illuminated
May 23
Waning Gibbous
May 26
Last Quarter
Jun 3
New
Jun 10
First Quarter
Jun 17
Full

Hourly Weather History & Observations

Time (EDT) Temp. Dew Point Humidity Pressure Visibility Wind Dir Wind Speed Gust Speed Precip Events Conditions
12:15 AM 65.3 °F 60.4 °F 84% 29.90 in 10.0 mi South 6.9 mph - N/A   Overcast
12:16 AM 65.3 °F 60.4 °F 84% 29.90 in 10.0 mi SSW 6.9 mph - N/A   Overcast
12:35 AM 64.8 °F 60.3 °F 85% 29.88 in 10.0 mi SE 6.9 mph - N/A Rain Light Rain
12:55 AM 64.8 °F 60.4 °F 86% 29.88 in 10.0 mi South 8.1 mph - N/A   Mostly Cloudy
1:15 AM 65.7 °F 60.3 °F 83% 29.88 in 10.0 mi SSW 5.8 mph - N/A Rain Light Rain
1:16 AM 65.7 °F 60.4 °F 83% 29.88 in 10.0 mi SSW 6.9 mph - N/A Rain Light Rain
1:35 AM 66.2 °F 60.8 °F 83% 29.90 in 10.0 mi SW 6.9 mph - N/A Rain Light Rain
1:55 AM 65.7 °F 61.2 °F 85% 29.91 in 10.0 mi SSW 5.8 mph - 0.02 in Rain Light Rain
2:15 AM 65.7 °F 61.3 °F 86% 29.90 in 10.0 mi SW 4.6 mph - N/A Rain Light Rain
2:16 AM 65.5 °F 61.5 °F 87% 29.90 in 10.0 mi SW 4.6 mph - N/A Rain Light Rain
2:35 AM 65.8 °F 61.7 °F 86% 29.89 in 10.0 mi SW 9.2 mph 23.0 mph 0.02 in Rain Light Rain
2:36 AM 65.8 °F 61.7 °F 86% 29.89 in 10.0 mi WSW 8.1 mph 23.0 mph 0.02 in Rain Light Rain
2:55 AM 64.8 °F 61.3 °F 89% 29.87 in 10.0 mi WSW 9.2 mph - 0.03 in Rain Rain
2:56 AM 64.8 °F 61.3 °F 89% 29.87 in 10.0 mi WSW 8.1 mph - 0.03 in Rain Rain
3:15 AM 64.6 °F 61.7 °F 90% 29.86 in 10.0 mi SSW 5.8 mph - 0.01 in Rain Light Rain
3:35 AM 65.3 °F 62.6 °F 91% 29.85 in 10.0 mi WSW 5.8 mph - 0.04 in Rain Light Rain
3:36 AM 65.3 °F 62.6 °F 91% 29.85 in 10.0 mi SW 5.8 mph - 0.04 in Rain Light Rain
3:55 AM 65.3 °F 62.6 °F 91% 29.84 in 10.0 mi ESE 5.8 mph - 0.06 in Rain Light Rain
3:56 AM 65.3 °F 62.6 °F 91% 29.84 in 10.0 mi SE 3.5 mph - 0.06 in Rain Light Rain
4:15 AM 64.0 °F 61.9 °F 93% 29.82 in 10.0 mi SSE 6.9 mph - N/A Rain Light Rain
4:35 AM 63.9 °F 62.1 °F 94% 29.82 in 7.0 mi SSW 6.9 mph - 0.03 in Rain Light Rain
4:55 AM 63.9 °F 62.6 °F 96% 29.82 in 10.0 mi SSE 5.8 mph - 0.03 in   Overcast
5:15 AM 63.7 °F 62.2 °F 95% 29.82 in 10.0 mi SSE 3.5 mph - N/A   Overcast
5:16 AM 63.7 °F 62.2 °F 95% 29.82 in 10.0 mi SSE 3.5 mph - N/A   Overcast
5:35 AM 63.9 °F 62.6 °F 96% 29.81 in 10.0 mi South 6.9 mph - N/A Rain Light Rain
5:55 AM 64.0 °F 62.6 °F 95% 29.81 in 10.0 mi South 5.8 mph - N/A   Overcast
6:15 AM 64.9 °F 63.5 °F 95% 29.80 in 10.0 mi SW 6.9 mph - N/A   Overcast
6:16 AM 65.1 °F 63.5 °F 94% 29.80 in 10.0 mi SW 6.9 mph - N/A   Overcast
6:35 AM 65.5 °F 63.9 °F 94% 29.80 in 10.0 mi WSW 9.2 mph - N/A   Overcast
6:36 AM 65.5 °F 63.9 °F 94% 29.80 in 10.0 mi WSW 11.5 mph - N/A   Overcast
6:55 AM 65.7 °F 63.9 °F 94% 29.81 in 10.0 mi West 10.4 mph - N/A   Overcast
7:15 AM 65.3 °F 63.0 °F 92% 29.82 in 10.0 mi West 13.8 mph 17.3 mph N/A   Overcast
7:16 AM 65.3 °F 63.0 °F 92% 29.82 in 10.0 mi West 12.7 mph 17.3 mph N/A   Overcast
7:35 AM 64.9 °F 62.4 °F 92% 29.83 in 10.0 mi West 11.5 mph 16.1 mph N/A   Overcast
7:36 AM 64.9 °F 62.2 °F 91% 29.83 in 10.0 mi West 11.5 mph 16.1 mph N/A   Overcast
7:55 AM 64.6 °F 61.2 °F 89% 29.84 in 10.0 mi West 9.2 mph 23.0 mph N/A   Overcast
8:15 AM 63.9 °F 58.1 °F 81% 29.85 in 10.0 mi WNW 8.1 mph 20.7 mph N/A   Overcast
8:35 AM 63.9 °F 57.7 °F 80% 29.86 in 10.0 mi West 10.4 mph 20.7 mph N/A   Overcast
8:55 AM 64.8 °F 56.3 °F 74% 29.86 in 10.0 mi West 15.0 mph 19.6 mph N/A   Mostly Cloudy
8:56 AM 64.8 °F 56.1 °F 74% 29.86 in 10.0 mi West 15.0 mph 19.6 mph N/A   Mostly Cloudy
9:15 AM 64.8 °F 54.3 °F 69% 29.86 in 10.0 mi West 12.7 mph 20.7 mph N/A   Mostly Cloudy
9:36 AM 65.3 °F 52.0 °F 62% 29.86 in 10.0 mi WNW 11.5 mph 21.9 mph N/A   Scattered Clouds
9:55 AM 66.6 °F 52.0 °F 59% 29.86 in 10.0 mi West 16.1 mph 21.9 mph N/A   Clear
10:15 AM 66.9 °F 50.5 °F 56% 29.87 in 10.0 mi West 20.7 mph 27.6 mph N/A   Clear
10:16 AM 66.7 °F 50.4 °F 56% 29.87 in 10.0 mi West 18.4 mph 27.6 mph N/A   Clear
10:35 AM 67.5 °F 50.5 °F 55% 29.86 in 10.0 mi West 16.1 mph 23.0 mph N/A   Scattered Clouds
10:55 AM 68.0 °F 46.8 °F 47% 29.87 in 10.0 mi West 23.0 mph 32.2 mph N/A   Scattered Clouds
10:56 AM 68.0 °F 46.6 °F 46% 29.87 in 10.0 mi West 23.0 mph 32.2 mph N/A   Scattered Clouds
11:15 AM 67.3 °F 45.0 °F 45% 29.87 in 10.0 mi West 20.7 mph 32.2 mph N/A   Clear
11:16 AM 67.3 °F 45.0 °F 45% 29.87 in 10.0 mi West 19.6 mph 32.2 mph N/A   Clear
11:35 AM 67.5 °F 45.0 °F 44% 29.87 in 10.0 mi West 19.6 mph 28.8 mph N/A   Clear
11:55 AM 67.6 °F 42.4 °F 40% 29.89 in 10.0 mi West 24.2 mph 34.5 mph N/A   Clear
12:15 PM 67.6 °F 43.9 °F 42% 29.89 in 10.0 mi West 24.2 mph 35.7 mph N/A   Clear
12:35 PM 67.8 °F 45.9 °F 45% 29.89 in 10.0 mi West 20.7 mph 29.9 mph N/A   Clear
12:55 PM 67.1 °F 46.0 °F 47% 29.90 in 10.0 mi WNW 16.1 mph 35.7 mph N/A   Clear
1:15 PM 67.1 °F 45.3 °F 45% 29.91 in 10.0 mi West 25.3 mph 33.4 mph N/A   Clear
1:16 PM 67.1 °F 45.5 °F 46% 29.91 in 10.0 mi West 25.3 mph 33.4 mph N/A   Clear
1:35 PM 68.2 °F 47.5 °F 47% 29.91 in 10.0 mi West 12.7 mph 25.3 mph N/A   Clear
1:55 PM 67.5 °F 46.8 °F 47% 29.90 in 10.0 mi West 23.0 mph 31.1 mph N/A   Clear
2:15 PM 68.5 °F 47.5 °F 47% 29.91 in 10.0 mi West 12.7 mph 28.8 mph N/A   Clear
2:16 PM 68.4 °F 47.3 °F 47% 29.91 in 10.0 mi West 11.5 mph 28.8 mph N/A   Clear
2:31 PM 68.4 °F 47.5 °F 47% 29.92 in 10.0 mi West 25.3 mph 32.2 mph N/A   Scattered Clouds
2:58 PM 67.3 °F 47.7 °F 49% 29.93 in 10.0 mi WNW 17.3 mph 31.1 mph N/A   Scattered Clouds
3:15 PM 67.5 °F 48.0 °F 50% 29.94 in 10.0 mi West 24.2 mph 33.4 mph N/A   Mostly Cloudy
3:16 PM 67.5 °F 47.8 °F 49% 29.94 in 10.0 mi West 24.2 mph 33.4 mph N/A   Mostly Cloudy
3:35 PM 66.4 °F 47.7 °F 51% 29.94 in 10.0 mi WNW 16.1 mph 27.6 mph N/A   Mostly Cloudy
3:55 PM 67.1 °F 46.9 °F 48% 29.95 in 10.0 mi WNW 17.3 mph 26.5 mph N/A   Mostly Cloudy
3:56 PM 67.1 °F 47.1 °F 49% 29.95 in 10.0 mi West 16.1 mph 26.5 mph N/A   Mostly Cloudy
4:15 PM 66.4 °F 47.3 °F 50% 29.96 in 10.0 mi WNW 11.5 mph 26.5 mph N/A   Mostly Cloudy
4:16 PM 66.4 °F 47.5 °F 51% 29.96 in 10.0 mi WNW 13.8 mph 26.5 mph N/A   Mostly Cloudy
4:35 PM 66.6 °F 47.7 °F 51% 29.96 in 10.0 mi NW 13.8 mph 24.2 mph N/A   Mostly Cloudy
4:55 PM 66.4 °F 46.9 °F 50% 29.97 in 10.0 mi WNW 16.1 mph 25.3 mph N/A   Mostly Cloudy
5:15 PM 66.9 °F 47.5 °F 50% 29.97 in 10.0 mi WNW 17.3 mph 29.9 mph N/A   Mostly Cloudy
5:16 PM 66.9 °F 47.3 °F 49% 29.97 in 10.0 mi WNW 16.1 mph 29.9 mph N/A   Mostly Cloudy
5:35 PM 66.0 °F 47.3 °F 51% 29.97 in 10.0 mi West 10.4 mph 24.2 mph N/A   Mostly Cloudy
5:55 PM 66.2 °F 47.7 °F 51% 29.98 in 10.0 mi WNW 10.4 mph 23.0 mph N/A   Mostly Cloudy
6:15 PM 65.3 °F 46.9 °F 51% 29.99 in 10.0 mi WNW 18.4 mph 26.5 mph N/A   Mostly Cloudy
6:16 PM 65.3 °F 46.9 °F 51% 29.99 in 10.0 mi WNW 17.3 mph 26.5 mph N/A   Mostly Cloudy
6:35 PM 65.7 °F 47.5 °F 52% 30.00 in 10.0 mi West 12.7 mph 31.1 mph N/A   Overcast
6:36 PM 65.7 °F 47.5 °F 52% 30.00 in 10.0 mi West 15.0 mph 31.1 mph N/A   Overcast
6:55 PM 65.3 °F 47.3 °F 52% 30.00 in 10.0 mi WNW 10.4 mph 23.0 mph N/A   Overcast
7:15 PM 64.8 °F 46.2 °F 51% 30.00 in 10.0 mi NW 11.5 mph 23.0 mph N/A   Mostly Cloudy
7:16 PM 64.9 °F 46.2 °F 51% 30.00 in 10.0 mi NW 11.5 mph 23.0 mph N/A   Mostly Cloudy
7:35 PM 65.3 °F 45.7 °F 49% 30.00 in 10.0 mi NW 11.5 mph 25.3 mph N/A   Scattered Clouds
7:36 PM 65.1 °F 45.7 °F 49% 30.00 in 10.0 mi NW 12.7 mph 25.3 mph N/A   Scattered Clouds
7:55 PM 64.6 °F 45.9 °F 51% 30.01 in 10.0 mi WNW 11.5 mph 24.2 mph N/A   Scattered Clouds
8:15 PM 63.9 °F 45.7 °F 52% 30.02 in 10.0 mi WNW 10.4 mph 19.6 mph N/A   Clear
8:35 PM 63.1 °F 46.0 °F 54% 30.02 in 10.0 mi NW 4.6 mph 17.3 mph N/A   Clear
8:36 PM 63.0 °F 46.0 °F 54% 30.02 in 10.0 mi WNW 4.6 mph - N/A   Clear
8:55 PM 61.7 °F 46.0 °F 56% 30.03 in 10.0 mi WNW 6.9 mph - N/A   Clear
9:16 PM 61.2 °F 46.0 °F 58% 30.04 in 10.0 mi NW 4.6 mph - N/A   Clear
9:35 PM 60.1 °F 46.4 °F 61% 30.04 in 10.0 mi NW 4.6 mph - N/A   Clear
9:36 PM 60.1 °F 46.4 °F 61% 30.04 in 10.0 mi NW 5.8 mph - N/A   Clear
9:55 PM 59.2 °F 46.4 °F 63% 30.05 in 10.0 mi Calm Calm - N/A   Clear
10:15 PM 58.5 °F 46.6 °F 65% 30.05 in 10.0 mi WNW 3.5 mph - N/A   Clear
10:16 PM 58.5 °F 46.6 °F 65% 30.05 in 10.0 mi WNW 3.5 mph - N/A   Clear
10:35 PM 57.4 °F 46.9 °F 68% 30.07 in 10.0 mi West 3.5 mph - N/A   Clear
10:36 PM 57.2 °F 46.9 °F 69% 30.06 in 10.0 mi West 3.5 mph - N/A   Clear
10:55 PM 56.1 °F 47.3 °F 72% 30.08 in 10.0 mi West 4.6 mph - N/A   Clear
11:15 PM 55.4 °F 47.3 °F 74% 30.08 in 10.0 mi West 5.8 mph - N/A   Clear
11:35 PM 55.4 °F 46.8 °F 73% 30.09 in 10.0 mi WNW 5.8 mph - N/A   Clear
11:55 PM 54.7 °F 46.6 °F 74% 30.08 in 10.0 mi NW 5.8 mph - N/A   Clear
11:56 PM 54.7 °F 46.6 °F 74% 30.08 in 10.0 mi WNW 4.6 mph - N/A   Clear